[[{"header":{"parameterUnit":"m.s-1","parameterCategory":1,"la1":30.2991,"la2":30.254,"lo1":-89.0895,"lo2":-89.0444,"dy":0.0017,"dx":0.0017,"nx":28,"ny":28,"refTime":"2024-06-09T21:00:00:Z","depth":0,"parameterNumber":2,"parameterNumberName":"U-component_of_WINDS"},"data":[0,0,0,0,0,0,0,0,0,0,0,0,0,0,0,0,0,0,0,0,0,0,0,0,0,0,0,0,0,0,0,0,0,0,0,0,0,0,0,0,0,0,0,0,0,0,0,0,0,0,0,0,0,0,0,0,0,0,2.9012,2.9013,0,2.9119,2.912,2.9121,2.9064,2.9061,2.9058,2.9055,2.9175,2.9181,2.9186,0,0,0,0,0,0,0,0,0,0,0,0,0,2.8769,2.8774,2.9012,2.9013,2.9014,2.9119,2.912,2.9122,2.9064,2.9061,2.9057,2.9054,2.9173,2.918,2.9187,0,0,0,0,0,0,0,0,0,0,0,0,0,2.8875,2.8775,2.9012,2.8998,2.8998,2.9118,2.912,2.9122,2.9065,2.9061,2.9056,2.9052,2.9171,2.9179,2.9188,2.9331,0,0,2.9215,2.9219,0,0,0,0,0,0,0,0,2.887,2.8884,2.8999,2.8999,2.8999,2.9073,2.9078,2.9192,2.9066,2.904,2.9055,2.905,2.9145,2.9156,2.9186,2.9336,2.9342,2.9216,2.9221,2.9225,2.9228,0,0,0,0,0,0,0,2.8862,2.888,2.9054,2.9001,2.9001,2.8991,2.9001,2.91,2.9116,2.9042,2.9038,2.9051,2.9145,2.9178,2.9188,2.9343,2.9216,2.9224,2.9229,2.9232,2.9621,2.9626,0,0,0,0,0,0,2.8854,2.8874,2.9051,2.9058,2.8922,2.8999,2.901,2.9054,2.9115,2.912,2.9054,2.9048,2.9165,2.9178,2.9192,2.9366,2.9225,2.9233,2.9238,2.9616,2.9622,2.9627,0,0,0,0,0,0,2.8849,2.887,2.9047,2.8965,2.8986,2.9007,2.9058,2.9059,2.9091,2.9124,2.9128,2.9084,2.9162,2.918,2.9297,2.9369,2.9237,2.9245,2.961,2.9618,2.9625,2.9712,0,0,0,0,0,0,2.8842,2.8869,2.892,2.8966,2.8991,2.9146,2.9062,2.9064,2.9106,2.9098,2.9153,2.9158,2.916,2.9284,2.9306,2.9379,2.9252,2.9604,2.9613,2.9622,2.9703,2.9722,2.9738,0,0,0,0,0,2.8834,2.8942,2.8923,2.8945,2.9055,2.915,2.9165,2.9161,2.9111,2.9166,2.9188,2.9157,2.9358,2.9297,2.9321,2.9397,2.9599,2.9611,2.9622,2.9695,2.9718,2.9737,0,0,0,0,0,0,2.8907,2.8948,2.8927,2.9053,2.9098,2.914,2.9208,2.9185,2.9248,2.9238,2.9234,2.9247,2.9369,2.9395,2.9326,2.9541,2.9471,2.9488,2.9519,2.9541,2.9558,2.955,2.926,0,0,0,0,0,2.8937,2.9007,2.9041,2.9149,2.9172,2.9186,2.9228,2.9221,2.9269,2.9289,2.9319,2.937,2.9445,2.9495,2.9565,2.9707,2.972,2.9772,2.979,2.9804,2.9818,2.9899,2.9923,2.9664,2.9664,2.9664,0,0,2.9001,2.9032,2.9077,2.9164,2.9198,2.9275,2.9203,2.9287,2.9345,2.9303,2.9414,2.9439,2.9497,2.9627,2.9686,2.9653,2.9893,2.9818,2.9829,2.9836,2.9913,2.9937,2.9959,2.9672,2.967,2.9669,0,0,2.9156,2.9186,2.928,2.9316,2.9368,2.9378,2.9401,2.9447,2.9461,2.9573,2.9544,2.9615,2.9743,2.9786,2.9824,3.0,2.9976,3.0024,3.0115,3.0193,3.0214,3.0232,3.0297,3.032,3.0038,3.0039,3.0039,0,2.923,2.934,2.9332,2.9418,2.9459,2.9423,2.9521,2.9557,2.9632,2.9663,2.9623,2.9785,2.9821,2.9962,3.0006,3.0037,3.0067,3.0017,3.0211,3.0229,3.0246,3.0308,3.0332,3.0044,3.0044,3.0043,3.0043,0,2.943,2.9508,2.9579,2.9649,2.9698,2.979,2.9799,2.9851,2.9841,2.9856,2.9973,3.0015,3.0094,3.0128,3.012,3.027,3.0247,3.021,3.014,3.0276,3.0335,3.0358,3.0052,3.005,3.0049,3.0047,0,0,2.9632,2.9698,2.9724,2.9757,2.9814,2.9876,2.9969,3.0044,3.009,3.0144,3.0223,3.0334,3.03,3.0344,3.0342,3.041,3.055,3.0365,3.0366,3.0399,3.0722,3.075,3.0777,3.0534,3.0539,3.0542,3.0717,0,2.9793,2.995,2.9947,3.0095,3.017,3.0138,3.022,3.0266,3.0283,3.0352,3.0373,3.0452,3.04,3.0427,3.0493,3.0519,3.0615,3.0506,3.0612,3.0616,3.0599,3.0807,3.0837,3.1,3.074,3.0744,3.0747,0,3.0,3.0058,3.0213,3.0262,3.0293,3.0366,3.0437,3.0501,3.0555,3.0564,3.0614,3.0601,3.07,3.0628,3.0766,3.0692,3.0736,3.0755,3.0762,3.0772,3.0689,3.0825,3.1052,3.1077,3.0782,3.0779,3.0777,0,3.0134,3.0252,3.0361,3.039,3.0449,3.0501,3.0529,3.0578,3.0625,3.0688,3.0719,3.0795,3.0836,3.0897,3.0907,3.0852,3.1047,3.0974,3.1059,3.1059,3.1101,3.1099,3.134,3.1129,3.1128,3.1128,3.1127,0,3.0313,3.041,3.0422,3.0489,3.0598,3.0596,3.0705,3.0729,3.0774,3.0848,3.0827,3.0897,3.0905,3.098,3.0989,3.1104,3.1123,3.1135,3.1136,3.1137,3.1136,3.1166,3.1155,3.1134,3.1133,3.1132,3.1131,0,3.0481,3.0492,3.0609,3.0656,3.067,3.0749,3.0791,3.0857,3.0873,3.0968,3.099,3.1017,3.1104,3.112,3.1223,3.1229,3.1367,3.1356,3.1348,3.1347,3.1431,3.1424,3.1701,3.1738,3.1502,3.1504,3.1506,0,3.0594,3.0668,3.0723,3.077,3.08,3.0876,3.0923,3.0926,3.0977,3.1046,3.1105,3.1189,3.1256,3.1398,3.1429,3.1509,3.1501,3.1593,3.1513,3.1512,3.1504,3.15,3.1509,3.1608,3.1611,3.1613,3.1614,0,3.0796,3.0799,3.0866,3.0937,3.0994,3.1051,3.1104,3.1145,3.1156,3.1215,3.1302,3.1354,3.146,3.1545,3.1625,3.1658,3.164,3.1639,3.1664,3.1665,3.1658,3.1665,3.139,3.1633,3.1631,3.163,3.1629,3.1628,3.0941,3.1006,3.1055,3.1133,3.1173,3.1225,3.1289,3.1314,3.1386,3.147,3.1468,3.1565,3.1622,3.1727,3.1765,3.1844,3.1815,3.185,3.1859,3.1867,3.1876,3.1645,3.1859,3.1858,3.1858,3.1857,3.1857,0,3.1143,3.1173,3.1244,3.1319,3.1382,3.1356,3.1416,3.147,3.1554,3.1607,3.1674,3.1777,3.186,3.1899,3.1982,3.2038,3.2032,3.206,3.2056,3.2065,3.1896,3.1867,3.2064,3.2064,3.2064,3.2063,3.2063,3.2063,3.1255,3.1364,3.1373,3.1504,3.1535,3.1628,3.1664,3.1713,3.1755,3.187,3.1938,3.1962,3.2011,3.2098,3.2175,3.2184,3.2217,3.2249,3.2255,3.2097,3.2076,3.2056,3.2029,3.2256,3.2256,3.2417,3.2419,3.242]},{"header":{"parameterUnit":"m.s-1","parameterCategory":1,"la1":30.2991,"la2":30.254,"lo1":-89.0895,"lo2":-89.0444,"dy":0.0017,"dx":0.0017,"nx":28,"ny":28,"refTime":"2024-06-09T21:00:00:Z","depth":0,"parameterNumber":3,"parameterNumberName":"V-component_of_WINDS"},"data":[0,0,0,0,0,0,0,0,0,0,0,0,0,0,0,0,0,0,0,0,0,0,0,0,0,0,0,0,0,0,0,0,0,0,0,0,0,0,0,0,0,0,0,0,0,0,0,0,0,0,0,0,0,0,0,0,0,0,1.4685,1.4687,0,1.4877,1.488,1.4882,1.4886,1.4884,1.4881,1.4879,1.5077,1.5085,1.5092,0,0,0,0,0,0,0,0,0,0,0,0,0,1.432,1.4327,1.4685,1.4687,1.469,1.4877,1.488,1.4882,1.4887,1.4884,1.4881,1.4878,1.5075,1.5084,1.5093,0,0,0,0,0,0,0,0,0,0,0,0,0,1.4492,1.4329,1.4685,1.4715,1.4719,1.4877,1.488,1.4883,1.4887,1.4884,1.488,1.4877,1.5072,1.5083,1.5094,1.5235,0,0,1.5128,1.5133,0,0,0,0,0,0,0,0,1.4483,1.4506,1.4708,1.4713,1.4718,1.4854,1.4824,1.5001,1.4888,1.4823,1.4879,1.4875,1.5006,1.5022,1.5066,1.5244,1.5253,1.5129,1.5136,1.5141,1.5144,0,0,0,0,0,0,0,1.4471,1.4497,1.4761,1.4711,1.4717,1.4718,1.4738,1.4857,1.4933,1.4829,1.483,1.4852,1.5008,1.5056,1.5071,1.5255,1.5129,1.5139,1.5146,1.515,1.5556,1.556,0,0,0,0,0,0,1.4453,1.4488,1.4755,1.4767,1.4589,1.4727,1.475,1.4814,1.4931,1.4946,1.4855,1.4852,1.5038,1.5058,1.5078,1.525,1.5141,1.5151,1.5158,1.5552,1.5557,1.5561,0,0,0,0,0,0,1.4445,1.4477,1.4747,1.4628,1.4662,1.4737,1.4809,1.482,1.4867,1.4951,1.4964,1.489,1.5036,1.5062,1.5195,1.5257,1.5156,1.5167,1.5547,1.5553,1.5559,1.5596,0,0,0,0,0,0,1.4434,1.4474,1.4529,1.4629,1.4668,1.4862,1.4813,1.4826,1.4887,1.4884,1.4987,1.5001,1.5035,1.5178,1.5206,1.5271,1.5175,1.5542,1.555,1.5557,1.5589,1.5602,1.5613,0,0,0,0,0,1.4421,1.4532,1.4532,1.4564,1.4739,1.4866,1.4888,1.4925,1.4891,1.4947,1.5,1.4998,1.5245,1.5192,1.5224,1.5292,1.5538,1.5548,1.5556,1.5584,1.56,1.5613,0,0,0,0,0,0,1.4439,1.4546,1.4547,1.4693,1.477,1.4866,1.4938,1.4941,1.503,1.5024,1.5066,1.5089,1.5221,1.527,1.5209,1.5433,1.5387,1.5403,1.5398,1.5413,1.5425,1.5412,1.5185,0,0,0,0,0,1.446,1.4554,1.4642,1.4763,1.4801,1.4862,1.4919,1.4941,1.5022,1.5055,1.5118,1.5198,1.5293,1.5355,1.5448,1.5595,1.5617,1.5657,1.5669,1.5679,1.5693,1.5773,1.5791,1.5591,1.5591,1.5591,0,0,1.4504,1.4574,1.4632,1.4768,1.483,1.4926,1.489,1.4994,1.5066,1.5071,1.5201,1.5249,1.534,1.548,1.5545,1.5525,1.5752,1.569,1.5697,1.5706,1.5784,1.5803,1.582,1.5597,1.5596,1.5595,0,0,1.4635,1.4697,1.4804,1.4866,1.496,1.4999,1.5025,1.512,1.5152,1.5282,1.5287,1.5372,1.5536,1.56,1.5655,1.5804,1.5805,1.5833,1.5897,1.5974,1.599,1.6004,1.6058,1.6077,1.5846,1.5846,1.5846,0,1.4679,1.4824,1.4859,1.4962,1.5022,1.5028,1.5137,1.5195,1.5315,1.5356,1.533,1.5534,1.5596,1.5751,1.5787,1.583,1.586,1.5823,1.5985,1.6,1.6013,1.6065,1.6085,1.5849,1.5849,1.5848,1.5848,0,1.4873,1.4973,1.5048,1.5162,1.523,1.5335,1.5385,1.5449,1.5462,1.5504,1.5635,1.5709,1.5816,1.5853,1.5869,1.601,1.5994,1.5976,1.5931,1.6035,1.6084,1.6104,1.5853,1.5852,1.5851,1.585,0,0,1.5025,1.5153,1.518,1.5231,1.5333,1.5412,1.5515,1.5619,1.5673,1.5753,1.5842,1.5978,1.5962,1.6023,1.6045,1.6112,1.6226,1.6086,1.6089,1.6111,1.6385,1.64,1.6422,1.6225,1.6229,1.6232,1.6378,0,1.5167,1.5354,1.5385,1.5548,1.5641,1.5646,1.5737,1.5809,1.5849,1.5933,1.5977,1.6073,1.6044,1.6081,1.6147,1.6198,1.6282,1.6187,1.6309,1.6313,1.6288,1.6448,1.6464,1.6599,1.6397,1.6401,1.6403,0,1.536,1.5444,1.5616,1.5703,1.5743,1.5824,1.592,1.6,1.608,1.6105,1.6171,1.6184,1.6291,1.6239,1.6387,1.6322,1.6372,1.6404,1.641,1.6425,1.6366,1.6469,1.6642,1.6663,1.6434,1.6431,1.6429,0,1.5454,1.561,1.5733,1.5776,1.5881,1.5937,1.5983,1.606,1.6119,1.6203,1.6241,1.6336,1.6388,1.6461,1.6498,1.6457,1.6643,1.6594,1.6667,1.6666,1.6709,1.6707,1.6895,1.6738,1.6738,1.6737,1.6737,0,1.5611,1.5716,1.5776,1.5852,1.5969,1.6003,1.6118,1.6163,1.623,1.6314,1.6324,1.6402,1.6446,1.653,1.656,1.6678,1.6701,1.6724,1.6731,1.6725,1.6722,1.6761,1.6753,1.6743,1.6741,1.674,1.6739,0,1.5738,1.5783,1.5917,1.6003,1.6027,1.611,1.6184,1.6257,1.6295,1.6401,1.6428,1.6488,1.6587,1.6631,1.6754,1.6773,1.6908,1.6908,1.6882,1.6885,1.6955,1.6949,1.7178,1.721,1.7029,1.703,1.7032,0,1.5837,1.5918,1.6012,1.6069,1.6116,1.6207,1.6267,1.6302,1.6364,1.646,1.6521,1.662,1.6702,1.686,1.6915,1.7008,1.7011,1.7084,1.7025,1.7016,1.7014,1.701,1.7018,1.7096,1.7098,1.71,1.7101,0,1.6008,1.6025,1.6111,1.6204,1.6275,1.635,1.6423,1.6469,1.6515,1.6583,1.6685,1.6748,1.6872,1.697,1.7066,1.7113,1.7115,1.7118,1.714,1.7136,1.7118,1.713,1.6913,1.7114,1.7113,1.7112,1.7111,1.711,1.6125,1.6197,1.6274,1.6369,1.6427,1.6494,1.6567,1.6613,1.6698,1.6802,1.6816,1.6924,1.7,1.7128,1.7178,1.7263,1.7245,1.7276,1.7285,1.7293,1.7298,1.7102,1.728,1.728,1.7279,1.7279,1.7279,0,1.6298,1.6347,1.6433,1.6535,1.6609,1.6601,1.6681,1.6744,1.6839,1.6909,1.6988,1.7103,1.7197,1.7258,1.7353,1.7409,1.7412,1.7433,1.743,1.7441,1.7308,1.728,1.7428,1.7428,1.7428,1.7428,1.7428,1.7428,1.6397,1.6517,1.6543,1.6691,1.6739,1.6845,1.6891,1.6953,1.7008,1.7137,1.7215,1.7253,1.7318,1.7418,1.7503,1.7518,1.7554,1.7576,1.759,1.7466,1.745,1.7436,1.741,1.7583,1.7583,1.7716,1.7718,1.7718]}]]